Tracking 34138 objects as of 15-May-2026
HD Live streaming from Space Station
objects crossing your sky now

STARLINK-36921

Track STARLINK-36921 now!
10-day predictions
STARLINK-36921 is classified as:


NORAD ID: 68019
Int'l Code: 2026-040E
Perigee: 471.6 km
Apogee: 473.8 km
Inclination: 97.3 °
Period: 93.9 minutes
Semi major axis: 6843 km
RCS: Unknown
Launch date: March 1, 2026
Source: United States (US)
Launch site: AIR FORCE WESTERN TEST RANGE (AFWTR)
Your satellite tracking list
Your tracking list is empty




NASA's NSSDC Master Catalog

Two Line Element Set (TLE):
1 68019U 26040E   26134.61386974  .00010233  00000-0  31883-3 0  9991
2 68019  97.2861  83.7416 0001637  91.5956 268.5475 15.33447794 11567
Source of the keplerian elements: AFSPC